OBJECT U, 61753

Orbit data source: Space-Track

You're viewing an uncataloged RSO

Recently launched and/or uncataloged RSOs may have evolving metadata. Metadata may include the following, but is not limited to: Owner, Manufacturer, Bus, Motor, and Mission.

OBJECT U, 61753 is a satellite in SSO that was launched on Mon, 04 Nov 2024 UTC via a SOYUZ-2-1B launch vehicle from the Vostochny Cosmodrome (VOSTO). Unknown objects in Earth's orbit typically refer to objects detected orbiting the Earth but have not yet been identified or cataloged. These objects could be anything from previously untracked satellites, spent rocket stages, debris from satellite collisions, or even natural meteoroids temporarily captured by Earth's gravity.

Loading next visibility...
Identifier
61753, 2024-199U
Orbit
SSO
Country
Flag of TBDTBD
Related business
Flag of RUMoscow State Technical University of Civil Aviation (RU)
Manufacturer
MGTU Bauman
Mission
Operational Amateur Meteo Radio Occ.
Bus & Motor
CUBESAT 6U, Unknown motor
Mass
10 kg wet, 10 kg dry
Launch date (UTC)
2024-11-04 (2 years ago)
Launch vehicle
SOYUZ-2-1B
Launch site
Vostochny Cosmodrome (VOSTO)
Object type
Unknown
Shape & HBR
Box, 0.2 m
Radar Cross Section
0.080 m², Medium (>0.1 m² and < 1m²)

Expand to show TLE details & history
Last TLE update: 8 hours ago

TLE from 8 hours ago
0 OBJECT U
1 61753U 24199U   26264.27890992  .00038730  00000-0  44323-3 0  9993
2 61753  97.2793 142.4266 0002356 292.0742  68.0265 15.62047258152520
Epoch: 2026-09-21T06:41Z
TLE epoch observation values (Epoch: 2026-09-21T06:41:37.817Z)
Latitude
-0.00008°
Longitude
41.85802°
Altitude
384.299 km
Speed
7.68 km/s
True Right ascension
09h 29m 42s
True Declination
0° 00' 00"
Sunlit
Object was in daylight at epoch
Visualization orbit readout
Latitude
Unknown
Longitude
Unknown
Altitude
Unknown
Speed
Unknown
Apparent Right ascension
Unknown
Apparent Declination
Unknown
Sunlit
N/A
Visualization observer readout
Local Sidereal Time
08:07:22
Azimuth
Unknown
Elevation
Unknown
Doppler factor
Unknown
Orbital elements
Apogee altitude
380.241 km
Perigee altitude
377.057 km
Semi-major axis
6,756.786 km
Eccentricity
0.00024
Inclination
97.2793°
RAAN
142.4266°
Arg. of periapsis
292.0742°
True anomaly
68.05154°
Mean anomaly
68.0265°
Eccentric anomaly
68.03902°
Mean motion
3.90781 °/min
Orbital period
92.12 mins
BSTAR
0.00044323
Loading maneuver chart data...
Computing Atmospheric mass density...
Loading historical data...
Loading historical data...
Loading historical data...
Loading historical data...
Loading historical data...
Loading historical data...
Loading historical data...

Documentation

Showing up to 5 results
|